Time,TemperatureF,DewpointF,PressureIn,WindDirection,WindDirectionDegrees,WindSpeedMPH,WindSpeedGustMPH,Humidity,HourlyPrecipIn,Conditions,Clouds,dailyrainin,SoftwareType,DateUTC
2013-05-06 00:04:00,57.4,56.8,29.87,ESE,112,2.2,-999.0,98,-99.99,,,0.00,Acu-Link.com,2013-05-06 04:04:00,
2013-05-06 00:20:00,57.0,56.4,29.88,NNE,22,3.7,-999.0,98,-99.99,,,0.00,Acu-Link.com,2013-05-06 04:20:00,
2013-05-06 00:35:00,57.0,56.4,29.88,SSW,202,1.1,-999.0,98,-99.99,,,0.00,Acu-Link.com,2013-05-06 04:35:00,
2013-05-06 00:50:00,56.7,56.1,29.88,NE,45,1.7,-999.0,98,-99.99,,,0.00,Acu-Link.com,2013-05-06 04:50:00,
2013-05-06 01:05:00,56.3,55.7,29.88,ESE,112,2.2,-999.0,98,-99.99,,,0.00,Acu-Link.com,2013-05-06 05:05:00,
2013-05-06 01:21:00,56.5,55.9,29.87,WNW,292,2.2,-999.0,98,-99.99,,,0.00,Acu-Link.com,2013-05-06 05:21:00,
2013-05-06 01:36:00,56.1,55.5,29.87,East,90,0.0,-999.0,98,-99.99,,,0.00,Acu-Link.com,2013-05-06 05:36:00,
2013-05-06 01:51:00,55.9,55.3,29.87,ESE,112,3.2,-999.0,98,-99.99,,,0.00,Acu-Link.com,2013-05-06 05:51:00,
2013-05-06 02:07:00,55.8,55.2,29.86,South,180,2.7,-999.0,98,-99.99,,,0.00,Acu-Link.com,2013-05-06 06:07:00,
2013-05-06 02:22:00,55.8,55.2,29.86,North,0,1.1,-999.0,98,-99.99,,,0.00,Acu-Link.com,2013-05-06 06:22:00,
2013-05-06 02:37:00,55.6,55.0,29.85,ESE,112,0.0,-999.0,98,-99.99,,,0.00,Acu-Link.com,2013-05-06 06:37:00,
2013-05-06 02:53:00,55.6,55.0,29.85,West,270,1.7,-999.0,98,-99.99,,,0.00,Acu-Link.com,2013-05-06 06:53:00,
2013-05-06 03:08:00,55.6,55.0,29.85,NW,315,0.0,-999.0,98,-99.99,,,0.00,Acu-Link.com,2013-05-06 07:08:00,
2013-05-06 03:23:00,55.6,55.0,29.85,North,0,2.2,-999.0,98,-99.99,,,0.00,Acu-Link.com,2013-05-06 07:23:00,
2013-05-06 03:38:00,55.6,55.0,29.84,NW,315,1.7,-999.0,98,-99.99,,,0.00,Acu-Link.com,2013-05-06 07:38:00,
2013-05-06 03:54:00,55.6,55.0,29.83,East,90,2.7,-999.0,98,-99.99,,,0.00,Acu-Link.com,2013-05-06 07:54:00,
2013-05-06 04:10:00,55.6,55.0,29.83,NNE,22,1.1,-999.0,98,-99.99,,,0.00,Acu-Link.com,2013-05-06 08:10:00,
2013-05-06 04:25:00,55.6,55.0,29.83,NE,45,2.2,-999.0,98,-99.99,,,0.00,Acu-Link.com,2013-05-06 08:25:00,
2013-05-06 04:40:00,55.6,55.0,29.83,NE,45,0.0,-999.0,98,-99.99,,,0.00,Acu-Link.com,2013-05-06 08:40:00,
2013-05-06 04:55:00,55.6,55.0,29.83,SW,225,2.7,-999.0,98,-99.99,,,0.01,Acu-Link.com,2013-05-06 08:55:00,
2013-05-06 05:10:00,55.8,55.2,29.83,East,90,0.0,-999.0,98,-99.99,,,0.01,Acu-Link.com,2013-05-06 09:10:00,
2013-05-06 05:25:00,55.8,55.2,29.83,SW,225,0.0,-999.0,98,-99.99,,,0.04,Acu-Link.com,2013-05-06 09:25:00,
2013-05-06 05:41:00,55.8,55.2,29.82,North,0,2.2,-999.0,98,-99.99,,,0.04,Acu-Link.com,2013-05-06 09:41:00,
2013-05-06 05:56:00,55.8,55.2,29.82,ESE,112,2.7,-999.0,98,-99.99,,,0.04,Acu-Link.com,2013-05-06 09:56:00,
2013-05-06 06:11:00,55.9,55.3,29.81,WNW,292,0.0,-999.0,98,-99.99,,,0.04,Acu-Link.com,2013-05-06 10:11:00,
2013-05-06 06:26:00,56.1,55.5,29.82,NNE,22,0.0,-999.0,98,-99.99,,,0.06,Acu-Link.com,2013-05-06 10:26:00,
2013-05-06 06:42:00,56.3,55.7,29.82,ESE,112,1.7,-999.0,98,-99.99,,,0.06,Acu-Link.com,2013-05-06 10:42:00,
2013-05-06 06:57:00,56.5,55.9,29.82,NNE,22,1.7,-999.0,98,-99.99,,,0.06,Acu-Link.com,2013-05-06 10:57:00,
2013-05-06 07:12:00,56.5,55.9,29.83,ENE,67,1.1,-999.0,98,-99.99,,,0.06,Acu-Link.com,2013-05-06 11:12:00,
2013-05-06 07:27:00,56.8,56.2,29.83,West,270,1.1,-999.0,98,-99.99,,,0.06,Acu-Link.com,2013-05-06 11:27:00,
2013-05-06 07:43:00,56.8,56.2,29.84,North,0,3.2,-999.0,98,-99.99,,,0.06,Acu-Link.com,2013-05-06 11:43:00,
2013-05-06 07:58:00,57.0,56.4,29.84,North,0,2.2,-999.0,98,-99.99,,,0.06,Acu-Link.com,2013-05-06 11:58:00,
2013-05-06 08:13:00,57.4,56.8,29.84,NNW,337,0.0,-999.0,98,-99.99,,,0.06,Acu-Link.com,2013-05-06 12:13:00,
2013-05-06 08:29:00,57.7,57.1,29.83,ESE,112,4.2,-999.0,98,-99.99,,,0.06,Acu-Link.com,2013-05-06 12:29:00,
2013-05-06 08:44:00,58.1,57.5,29.83,NE,45,2.2,-999.0,98,-99.99,,,0.06,Acu-Link.com,2013-05-06 12:44:00,
2013-05-06 08:59:00,58.8,58.2,29.83,ESE,112,1.7,-999.0,98,-99.99,,,0.06,Acu-Link.com,2013-05-06 12:59:00,
2013-05-06 09:15:00,59.2,58.6,29.83,NNE,22,1.1,-999.0,98,-99.99,,,0.06,Acu-Link.com,2013-05-06 13:15:00,
2013-05-06 09:30:00,59.9,59.3,29.83,WNW,292,1.7,-999.0,98,-99.99,,,0.06,Acu-Link.com,2013-05-06 13:30:00,
2013-05-06 09:45:00,60.6,60.0,29.83,North,0,0.0,-999.0,98,-99.99,,,0.06,Acu-Link.com,2013-05-06 13:45:00,
2013-05-06 10:00:00,61.0,60.4,29.82,NNE,22,1.7,-999.0,98,-99.99,,,0.06,Acu-Link.com,2013-05-06 14:00:00,
2013-05-06 10:15:00,61.9,61.3,29.83,NNE,22,1.7,-999.0,98,-99.99,,,0.06,Acu-Link.com,2013-05-06 14:15:00,
2013-05-06 10:31:00,62.8,62.2,29.82,West,270,2.7,-999.0,98,-99.99,,,0.06,Acu-Link.com,2013-05-06 14:31:00,
2013-05-06 10:46:00,63.1,62.5,29.82,NE,45,0.0,-999.0,98,-99.99,,,0.06,Acu-Link.com,2013-05-06 14:46:00,
2013-05-06 11:01:00,63.3,62.7,29.81,NE,45,1.1,-999.0,98,-99.99,,,0.07,Acu-Link.com,2013-05-06 15:01:00,
2013-05-06 11:17:00,62.8,62.2,29.81,North,0,2.2,-999.0,98,-99.99,,,0.09,Acu-Link.com,2013-05-06 15:17:00,
2013-05-06 11:32:00,62.4,61.8,29.80,NE,45,1.7,-999.0,98,-99.99,,,0.21,Acu-Link.com,2013-05-06 15:32:00,
2013-05-06 11:47:00,62.4,61.8,29.80,North,0,3.7,-999.0,98,-99.99,,,0.21,Acu-Link.com,2013-05-06 15:47:00,
2013-05-06 12:03:00,62.4,61.8,29.78,North,0,1.1,-999.0,98,-99.99,,,0.22,Acu-Link.com,2013-05-06 16:03:00,
2013-05-06 12:18:00,62.8,62.2,29.77,West,270,0.0,-999.0,98,-99.99,,,0.28,Acu-Link.com,2013-05-06 16:18:00,
2013-05-06 12:33:00,63.5,62.9,29.77,NE,45,0.0,-999.0,98,-99.99,,,0.28,Acu-Link.com,2013-05-06 16:33:00,
2013-05-06 12:48:00,63.7,63.1,29.76,East,90,3.2,-999.0,98,-99.99,,,0.28,Acu-Link.com,2013-05-06 16:48:00,
2013-05-06 13:04:00,63.3,62.7,29.76,NNE,22,2.2,-999.0,98,-99.99,,,0.28,Acu-Link.com,2013-05-06 17:04:00,
2013-05-06 13:19:00,63.3,62.7,29.76,WNW,292,0.0,-999.0,98,-99.99,,,0.28,Acu-Link.com,2013-05-06 17:19:00,
2013-05-06 13:34:00,63.3,62.7,29.75,SSE,157,0.0,-999.0,98,-99.99,,,0.29,Acu-Link.com,2013-05-06 17:34:00,
2013-05-06 13:50:00,63.0,62.4,29.74,NNW,337,0.0,-999.0,98,-99.99,,,0.61,Acu-Link.com,2013-05-06 17:50:00,
2013-05-06 14:05:00,61.9,61.3,29.76,NW,315,1.1,-999.0,98,-99.99,,,0.89,Acu-Link.com,2013-05-06 18:05:00,
2013-05-06 14:20:00,61.0,60.4,29.77,NNW,337,0.0,-999.0,98,-99.99,,,1.78,Acu-Link.com,2013-05-06 18:20:00,
2013-05-06 14:35:00,60.1,59.5,29.77,ESE,112,0.0,-999.0,98,-99.99,,,2.49,Acu-Link.com,2013-05-06 18:35:00,
2013-05-06 14:51:00,59.9,59.3,29.77,East,90,0.0,-999.0,98,-99.99,,,2.72,Acu-Link.com,2013-05-06 18:51:00,
2013-05-06 15:06:00,59.7,59.1,29.75,WNW,292,0.0,-999.0,98,-99.99,,,2.87,Acu-Link.com,2013-05-06 19:06:00,
2013-05-06 15:21:00,61.0,60.4,29.75,NW,315,0.0,-999.0,98,-99.99,,,2.90,Acu-Link.com,2013-05-06 19:21:00,
2013-05-06 15:36:00,60.4,59.8,29.74,East,90,0.0,-999.0,98,-99.99,,,2.92,Acu-Link.com,2013-05-06 19:36:00,
2013-05-06 15:51:00,60.1,59.5,29.74,WNW,292,0.0,-999.0,98,-99.99,,,2.93,Acu-Link.com,2013-05-06 19:51:00,
2013-05-06 16:07:00,59.9,59.3,29.74,ENE,67,0.0,-999.0,98,-99.99,,,2.94,Acu-Link.com,2013-05-06 20:07:00,
2013-05-06 16:22:00,61.9,61.3,29.73,East,90,0.0,-999.0,98,-99.99,,,2.99,Acu-Link.com,2013-05-06 20:22:00,
2013-05-06 16:37:00,62.8,62.2,29.71,ESE,112,1.1,-999.0,98,-99.99,,,2.99,Acu-Link.com,2013-05-06 20:37:00,
2013-05-06 16:52:00,63.9,63.3,29.71,SW,225,0.0,-999.0,98,-99.99,,,2.99,Acu-Link.com,2013-05-06 20:52:00,
2013-05-06 17:08:00,65.5,64.9,29.71,NW,315,1.7,-999.0,98,-99.99,,,2.99,Acu-Link.com,2013-05-06 21:08:00,
2013-05-06 17:23:00,65.7,65.1,29.71,NW,315,0.0,-999.0,98,-99.99,,,2.99,Acu-Link.com,2013-05-06 21:23:00,
2013-05-06 17:38:00,66.9,66.3,29.71,NW,315,0.0,-999.0,98,-99.99,,,2.99,Acu-Link.com,2013-05-06 21:38:00,
2013-05-06 17:53:00,67.8,67.2,29.71,WNW,292,0.0,-999.0,98,-99.99,,,2.99,Acu-Link.com,2013-05-06 21:53:00,
2013-05-06 18:09:00,70.5,69.9,29.71,WNW,292,0.0,-999.0,98,-99.99,,,2.99,Acu-Link.com,2013-05-06 22:09:00,
2013-05-06 18:24:00,70.3,69.1,29.72,ENE,67,0.0,-999.0,96,-99.99,,,2.99,Acu-Link.com,2013-05-06 22:24:00,
2013-05-06 18:39:00,68.4,67.8,29.71,ESE,112,0.0,-999.0,98,-99.99,,,2.99,Acu-Link.com,2013-05-06 22:39:00,
2013-05-06 18:55:00,66.7,66.1,29.71,ENE,67,0.0,-999.0,98,-99.99,,,2.99,Acu-Link.com,2013-05-06 22:55:00,
2013-05-06 19:10:00,66.0,65.4,29.72,ENE,67,0.0,-999.0,98,-99.99,,,2.99,Acu-Link.com,2013-05-06 23:10:00,
2013-05-06 19:25:00,65.7,65.1,29.72,SSW,202,0.0,-999.0,98,-99.99,,,2.99,Acu-Link.com,2013-05-06 23:25:00,
2013-05-06 19:41:00,65.1,64.5,29.72,WNW,292,0.0,-999.0,98,-99.99,,,2.99,Acu-Link.com,2013-05-06 23:41:00,
2013-05-06 19:56:00,64.8,64.2,29.73,NW,315,0.0,-999.0,98,-99.99,,,2.99,Acu-Link.com,2013-05-06 23:56:00,
2013-05-06 20:11:00,64.2,63.6,29.74,ENE,67,0.0,-999.0,98,-99.99,,,2.99,Acu-Link.com,2013-05-07 00:11:00,
2013-05-06 20:26:00,63.7,63.1,29.74,East,90,0.0,-999.0,98,-99.99,,,2.99,Acu-Link.com,2013-05-07 00:26:00,
2013-05-06 20:42:00,63.0,62.4,29.74,East,90,0.0,-999.0,98,-99.99,,,2.99,Acu-Link.com,2013-05-07 00:42:00,
2013-05-06 20:57:00,62.4,61.8,29.75,NNE,22,0.0,-999.0,98,-99.99,,,2.99,Acu-Link.com,2013-05-07 00:57:00,
2013-05-06 21:12:00,62.1,61.5,29.75,East,90,0.0,-999.0,98,-99.99,,,2.99,Acu-Link.com,2013-05-07 01:12:00,
2013-05-06 21:27:00,61.7,61.1,29.76,ESE,112,0.0,-999.0,98,-99.99,,,2.99,Acu-Link.com,2013-05-07 01:27:00,
2013-05-06 21:43:00,61.0,60.4,29.77,NNE,22,0.0,-999.0,98,-99.99,,,2.99,Acu-Link.com,2013-05-07 01:43:00,
2013-05-06 21:58:00,60.6,60.0,29.78,North,0,0.0,-999.0,98,-99.99,,,2.99,Acu-Link.com,2013-05-07 01:58:00,
2013-05-06 22:13:00,60.4,59.8,29.78,NNW,337,0.0,-999.0,98,-99.99,,,2.99,Acu-Link.com,2013-05-07 02:13:00,
2013-05-06 22:29:00,60.3,59.7,29.77,ESE,112,0.0,-999.0,98,-99.99,,,2.99,Acu-Link.com,2013-05-07 02:29:00,
2013-05-06 22:44:00,60.3,59.7,29.77,SSE,157,0.0,-999.0,98,-99.99,,,2.99,Acu-Link.com,2013-05-07 02:44:00,
2013-05-06 22:59:00,60.1,59.5,29.77,NNE,22,0.0,-999.0,98,-99.99,,,2.99,Acu-Link.com,2013-05-07 02:59:00,
2013-05-06 23:15:00,60.3,59.7,29.77,NNE,22,0.0,-999.0,98,-99.99,,,2.99,Acu-Link.com,2013-05-07 03:15:00,
2013-05-06 23:30:00,60.1,59.5,29.77,WNW,292,0.0,-999.0,98,-99.99,,,2.99,Acu-Link.com,2013-05-07 03:30:00,
2013-05-06 23:45:00,59.9,59.3,29.76,East,90,0.0,-999.0,98,-99.99,,,2.99,Acu-Link.com,2013-05-07 03:45:00,